EW9931 Weather Reports


time (UTC)temp
F
wind
direction
speed
knots
gust
knots
rain 1hr
in
rain 24hr
in
rain mn
in
humidity
%
barometer
mb
20260507161559 56 40 0.0 0.0 0.00 0.00 0.00 27 1010.6
20260507160101 55 41 0.0 0.0 0.00 0.00 0.00 29 1010.7
20260507154541 53 48 0.0 0.0 0.00 0.00 0.00 31 1011.0
20260507153036 51 49 0.0 0.0 0.00 0.00 0.00 40 1011.4
20260507151532 47 49 0.0 0.0 0.00 0.00 0.00 42 1012.4
20260507150028 45 49 0.0 0.0 0.00 0.00 0.00 52 1011.7
20260507144535 43 49 0.0 0.0 0.00 0.00 0.00 64 1012.1
20260507143023 41 49 0.0 0.0 0.00 0.00 0.00 67 1012.1
20260507141526 40 49 0.0 0.0 0.00 0.00 0.00 66 1012.4
20260507140023 40 49 0.0 0.0 0.00 0.00 0.00 64 1011.4
20260507134521 40 49 0.0 0.0 0.00 0.00 0.00 62 1011.4
20260507133020 40 49 0.0 0.0 0.00 0.00 0.00 61 1011.3
20260507131520 40 49 0.0 0.0 0.00 0.00 0.00 61 1011.1
20260507130027 40 49 0.0 0.0 0.00 0.00 0.00 60 1010.0
20260507124517 40 49 0.0 0.0 0.00 0.00 0.00 60 1009.4
20260507123021 40 49 0.0 0.0 0.00 0.00 0.00 61 1009.3
20260507121514 40 49 0.0 0.0 0.00 0.00 0.00 59 1009.5
20260507120014 40 49 0.0 0.0 0.00 0.00 0.00 60 1009.4
20260507114512 40 49 0.0 0.0 0.00 0.00 0.00 60 1009.4
20260507113011 40 49 0.0 0.0 0.00 0.00 0.00 60 1009.4
20260507111511 41 49 0.0 0.0 0.00 0.00 0.00 61 1009.5
20260507110010 41 49 0.0 0.0 0.00 0.00 0.00 62 1009.8
20260507104508 41 49 0.0 0.0 0.00 0.00 0.00 63 1009.3
20260507103007 41 49 0.0 0.0 0.00 0.00 0.00 63 1009.5
20260507101513 41 49 0.0 0.0 0.00 0.00 0.00 64 1009.4
20260507100005 41 49 0.0 0.0 0.00 0.00 0.00 64 1009.9
20260507094503 42 49 0.0 0.0 0.00 0.00 0.00 64 1010.0
20260507093003 42 49 0.0 0.0 0.00 0.00 0.00 65 1010.2
20260507091502 42 49 0.0 0.0 0.00 0.00 0.00 64 1010.2
20260507090113 42 49 0.0 0.0 0.00 0.00 0.00 65 1009.8
20260507084601 42 49 0.0 0.0 0.00 0.00 0.00 65 1009.9
20260507083059 42 49 0.0 0.0 0.00 0.00 0.00 65 1009.9
20260507081558 42 49 0.0 0.0 0.00 0.00 0.00 65 1009.7
20260507080055 42 49 0.0 0.0 0.00 0.00 0.00 64 1010.3
20260507074558 43 49 0.0 0.0 0.00 0.00 0.00 62 1010.3
20260507073054 43 49 0.0 0.0 0.00 0.00 0.00 59 1010.3
20260507071554 43 49 0.0 0.0 0.00 0.00 0.00 55 1010.4
20260507070055 43 49 0.0 0.0 0.00 0.00 0.00 50 1010.9
20260507064607 43 49 0.0 0.0 0.00 0.00 0.00 47 1011.1
20260507063056 43 49 0.0 0.0 0.00 0.00 0.00 47 1011.0
20260507061552 43 49 0.0 0.0 0.00 0.00 0.00 43 1011.1
20260507060058 44 49 0.0 0.0 0.00 0.00 0.00 42 1012.3
20260507054603 44 49 0.0 0.0 0.00 0.00 0.00 46 1011.4
20260507053052 45 49 0.0 0.0 0.00 0.00 0.00 45 1011.3
20260507051551 46 49 0.0 0.0 0.00 0.00 0.00 44 1011.3
20260507050050 46 49 0.0 0.0 0.00 0.00 0.00 43 1011.3
20260507044550 46 49 0.0 0.0 0.00 0.00 0.00 41 1011.3
20260507043057 47 49 0.0 0.0 0.00 0.00 0.00 42 1011.3
20260507041600 48 49 0.0 0.0 0.00 0.00 0.00 42 1011.1
20260507040055 49 49 0.0 0.0 0.00 0.00 0.00 42 1010.9
20260507034550 50 49 0.0 0.0 0.00 0.00 0.00 39 1010.2
20260507033050 51 49 0.0 0.0 0.00 0.00 0.00 38 1009.7
20260507031546 53 49 0.0 0.0 0.00 0.00 0.00 35 1009.6
20260507030046 54 49 0.0 0.0 0.00 0.00 0.00 32 1010.6
20260507024546 55 49 0.0 0.0 0.00 0.00 0.00 29 1010.4
20260507023056 55 62 0.0 0.0 0.00 0.00 0.00 27 1009.7
20260507021550 56 47 0.0 0.0 0.00 0.00 0.00 26 1009.6
20260507020044 57 35 0.0 0.0 0.00 0.00 0.00 26 1011.7
20260507014556 58 66 0.0 0.0 0.00 0.00 0.00 26 1011.1
20260507013103 59 117 0.0 0.0 0.00 0.00 0.00 26 1010.7
20260507011543 61 28 0.0 0.0 0.00 0.00 0.00 25 1010.3
20260507010042 63 110 1.7 0.0 0.00 0.00 0.00 22 1010.0
20260507004541 64 37 0.9 0.0 0.00 0.00 0.00 20 1010.0
20260507003041 63 59 0.9 0.0 0.00 0.00 0.00 20 1010.1
20260507001554 63 30 0.9 0.0 0.00 0.00 0.00 19 1010.0
20260507000038 64 69 0.9 0.0 0.00 0.00 0.00 21 1009.8
20260506234535 64 318 1.7 0.0 0.00 0.00 0.00 25 1009.7
20260506233032 63 44 0.9 0.0 0.00 0.00 0.00 28 1009.6
20260506231528 62 17 1.7 0.0 0.00 0.00 0.00 27 1009.7
20260506230025 62 37 0.9 0.0 0.00 0.00 0.00 27 1010.2
20260506224522 61 58 1.7 0.0 0.00 0.00 0.00 28 1010.3
20260506223019 61 21 0.9 0.0 0.00 0.00 0.00 28 1010.3
20260506221516 61 45 0.9 0.0 0.00 0.00 0.00 28 1010.5
20260506220015 61 51 0.9 0.0 0.00 0.00 0.00 28 1010.7
20260506214514 60 47 1.7 0.0 0.00 0.00 0.00 29 1010.9
20260506213015 60 44 1.7 0.0 0.00 0.00 0.00 28 1010.9
20260506211511 60 7 2.6 0.0 0.00 0.00 0.00 28 1010.8
20260506210014 61 20 0.9 0.0 0.00 0.00 0.00 29 1010.7
20260506204508 60 38 0.9 0.0 0.00 0.00 0.00 31 1011.2
20260506203006 59 25 0.9 0.0 0.00 0.00 0.00 34 1011.0
20260506201504 58 83 1.7 0.0 0.00 0.00 0.00 32 1011.2
20260506200003 58 13 1.7 0.0 0.00 0.00 0.00 34 1011.3
20260506194502 58 37 0.9 0.0 0.00 0.00 0.00 34 1011.8
20260506193100 58 18 0.9 0.0 0.00 0.00 0.00 34 1011.8
20260506191557 57 34 0.9 0.0 0.00 0.00 0.00 35 1011.8
20260506190056 56 59 0.0 0.0 0.00 0.00 0.00 37 1011.8
20260506184555 55 23 0.0 0.0 0.00 0.00 0.00 40 1012.2
20260506183053 54 278 0.0 0.0 0.00 0.00 0.00 40 1012.9
20260506181546 52 274 0.0 0.0 0.00 0.00 0.00 44 1013.3
20260506180049 51 44 0.0 0.0 0.00 0.00 0.00 48 1013.0
20260506174542 50 325 0.0 0.0 0.00 0.00 0.00 50 1012.9
20260506173041 50 329 0.0 0.0 0.00 0.00 0.00 51 1012.7
20260506171549 49 34 0.0 0.0 0.00 0.00 0.00 52 1013.1
20260506170037 48 340 0.0 0.0 0.00 0.00 0.00 51 1011.7
20260506164538 48 292 0.0 0.0 0.00 0.00 0.00 49 1011.5
20260506163045 48 359 0.0 0.0 0.00 0.00 0.00 48 1011.5